579  
ASUS41 KBTV 250330  
RWRBTV  
VERMONT REGIONAL WEATHER ROUNDUP  
NATIONAL WEATHER SERVICE BURLINGTON VT  
1100 PM EDT FRI SEP 24 2021  
 
NOTE: "FAIR" INDICATES FEW OR NO CLOUDS BELOW 12,000 FEET WITH NO  
SIGNIFICANT WEATHER AND/OR S TO VISIBILITY
.  
 
* THESE REPORTS ARE NOT UNDER NWS QUALITY CONTROL AND/OR DO NOT  
REPORT WEATHER SUCH AS PRECIPITATION AND FOG.
 
 
VTZ001>019-250400-  
_____VERMONT_____  
 
 
CITY SKY/WX TMP DP RH WIND PRES REMARKS
 
BURLINGTON CLEAR 57 50 77 S5 30.04F  
MONTPELIER CLEAR 53 50 89 CALM 30.10F  
MORRISVILLE CLEAR 50 49 96 S3 30.06S  
ST. JOHNSBURY* N/A 54 53 97 MISG 30.05F  
LYNDONVILLE* FAIR 51 50 97 CALM 30.08F  
MIDDLEBURY* FAIR 52 51 95 CALM 30.06S  
RUTLAND* CLEAR 53 53 100 SE9 30.07F  
SPRINGFIELD FOG 52 52 100 CALM 30.08S VSB 1/4  
HIGHGATE* MOCLDY 59 53 80 S5 30.03F  
NEWPORT* FAIR 51 48 92 SW5 30.07S  
BENNINGTON CLEAR 51 50 96 CALM 30.07F  
ISLAND POND* N/A 48 N/A N/A CALM N/A  
GALLUP MILLS* N/A 48 N/A N/A MISG N/A  
LAKE EDEN* N/A 48 N/A N/A CALM N/A  
MT. MANSFIELD* N/A 48 N/A N/A W25 N/A  
 
_____LAKE CHAMPLAIN_____  
 
 
CITY SKY/WX TMP DP RH WIND PRES REMARKS
 
BURTON ISLAND* N/A 63 54 72 SE8 N/A  
COLCHESTER RF* N/A 57 46 67 SW13 N/A  
DIAMOND ISL* N/A 59 54 82 E7 N/A  
 

 
 
NYZ007-026>031-035-052-083-087-250400-  
_____NORTHERN NEW YORK_____  
 
 
CITY SKY/WX TMP DP RH WIND PRES REMARKS
 
PLATTSBURGH CLOUDY 56 52 86 CALM 30.03S  
SARANAC LAKE CLOUDY 51 50 96 CALM 30.04S  
MASSENA MOCLDY 58 53 84 S3 30.02R  
OGDENSBURG* FAIR 54 52 94 VRB3 29.99R  
POTSDAM* CLOUDY 55 50 82 S3 30.02R  
WATERTOWN CLEAR 51 48 89 CALM 30.01S  
FT DRUM CLEAR 54 49 84 S6 30.02R  
ALBANY CLEAR 53 52 96 CALM 30.06F  
GLENS FALLS CLEAR 50 48 93 CALM 30.06S FOG  
 

 
NHZ002-005-011-250400-  
_____NEW HAMPSHIRE_____  
 
 
CITY SKY/WX TMP DP RH WIND PRES REMARKS
 
LEBANON FOG 57 54 89 CALM 30.07S VSB 1/4  
KEENE FOG 57 57 100 CALM 30.07S VSB 1/4  
MT WASHINGTON MOCLDY 46 27 46 SW35G41 N/A  
PLYMOUTH FAIR 55 53 95 CALM 30.06S  
WHITEFIELD CLOUDY 50 49 96 E3 30.08R FOG  
 

 
 
_____REGIONAL QUEBEC LOCATIONS_____  
 
 
CITY SKY/WX TMP DP RH WIND PRES REMARKS
 
MONTREAL MOCLDY 63 54 72 SW14 30.00S  
QUEBEC CITY MOCLDY 55 55 100 CALM 30.01S  
SHERBROOKE CLOUDY 57 54 88 S6 30.04F  
 
_____REGIONAL ONTARIO LOCATIONS_____  
 
 
CITY SKY/WX TMP DP RH WIND PRES REMARKS
 
OTTAWA PTCLDY 55 52 88 SW10 29.99R  
 
______KEY______  
VSB - VISIBILITY IN MILES  
WCI - WIND CHILL INDEX  
HX - HEAT INDEX  

 
NNNN  
 
 
CLICK HERE TO GO TO PREVIOUS BULLETINS.

The Nexlab VT Page
The Nexlab NY Page Main Text Page